• In Portugal
  • List of Countries
  • For 7 days
  • Water Temperature
  • Satellite Maps
  • Weather Map
  • Weather Widgets
  • user-avatar
    Login

    Hourly Weather Mosul

    Today, 23 January, Tuesday

    Time Temperature Precipitation Wind Pressure Humidity
    00:00 +8°C° 0 mm 4 mps 731 mmHg 48%
    01:00 +8°C° 0 mm 4 mps 731 mmHg 47%
    02:00 +7°C° 0 mm 4 mps 731 mmHg 47%
    03:00 +8°C° 0 mm 3 mps 731 mmHg 48%
    04:00 +7°C° 0 mm 4 mps 731 mmHg 47%
    05:00 +7°C° 0 mm 4 mps 731 mmHg 46%
    06:00 +6°C° 0 mm 4 mps 731 mmHg 45%
    07:00 +7°C° 0 mm 4 mps 731 mmHg 43%
    08:00 +8°C° 0 mm 4 mps 731 mmHg 40%
    09:00 +9°C° 0 mm 5 mps 731 mmHg 38%
    10:00 +10°C° 0 mm 5 mps 730 mmHg 34%
    11:00 +13°C° 0 mm 5 mps 730 mmHg 30%
    12:00 +15°C° 0 mm 6 mps 730 mmHg 26%
    13:00 +15°C° 0 mm 6 mps 729 mmHg 25%
    14:00 +16°C° 0 mm 6 mps 729 mmHg 24%
    15:00 +16°C° 0 mm 5 mps 729 mmHg 24%
    16:00 +15°C° 0 mm 4 mps 729 mmHg 27%
    17:00 +14°C° 0 mm 3 mps 729 mmHg 31%
    18:00 +14°C° 0 mm 1 mps 729 mmHg 34%
    19:00 +14°C° 0 mm 2 mps 729 mmHg 36%
    20:00 +14°C° 0 mm 2 mps 730 mmHg 38%
    21:00 +13°C° 0 mm 2 mps 730 mmHg 40%
    22:00 +13°C° 0 mm 2 mps 730 mmHg 43%
    23:00 +12°C° 0 mm 1 mps 730 mmHg 46%

    Tomorrow, 24 January, Wednesday

    Time Temperature Precipitation Wind Pressure Humidity
    00:00 +12°C° 0 mm 1 mps 730 mmHg 48%
    01:00 +11°C° 0 mm 1 mps 731 mmHg 48%
    02:00 +11°C° 0 mm 1 mps 731 mmHg 49%
    03:00 +11°C° 0 mm 1 mps 731 mmHg 49%
    04:00 +11°C° 0 mm 1 mps 731 mmHg 49%
    05:00 +9°C° 0 mm 2 mps 731 mmHg 49%
    06:00 +9°C° 0 mm 2 mps 731 mmHg 49%
    07:00 +10°C° 0 mm 2 mps 732 mmHg 47%
    08:00 +10°C° 0 mm 3 mps 732 mmHg 45%
    09:00 +11°C° 0 mm 3 mps 732 mmHg 43%
    10:00 +12°C° 0 mm 3 mps 733 mmHg 40%
    11:00 +13°C° 0 mm 3 mps 733 mmHg 38%
    12:00 +15°C° 0 mm 4 mps 733 mmHg 35%
    13:00 +16°C° 0 mm 3 mps 733 mmHg 35%
    14:00 +16°C° 0 mm 3 mps 732 mmHg 35%
    15:00 +17°C° 0 mm 3 mps 732 mmHg 35%
    16:00 +16°C° 0 mm 2 mps 732 mmHg 39%
    17:00 +15°C° 0 mm 2 mps 732 mmHg 43%
    18:00 +14°C° 0 mm 2 mps 732 mmHg 46%
    19:00 +14°C° 0 mm 2 mps 733 mmHg 48%
    20:00 +13°C° 0 mm 2 mps 733 mmHg 50%
    21:00 +13°C° 0 mm 2 mps 733 mmHg 51%
    22:00 +12°C° 0 mm 2 mps 733 mmHg 52%
    23:00 +12°C° 0 mm 2 mps 733 mmHg 53%

    Day after tomorrow, 25 January, Thursday

    Time Temperature Precipitation Wind Pressure Humidity
    00:00 +11°C° 0 mm 3 mps 733 mmHg 54%
    01:00 +11°C° 0 mm 3 mps 733 mmHg 55%
    02:00 +10°C° 0 mm 3 mps 732 mmHg 55%
    03:00 +10°C° 0 mm 3 mps 732 mmHg 55%
    04:00 +10°C° 0 mm 3 mps 732 mmHg 56%
    05:00 +10°C° 0 mm 3 mps 732 mmHg 56%
    06:00 +10°C° 0 mm 3 mps 732 mmHg 56%
    07:00 +11°C° 0 mm 4 mps 732 mmHg 54%
    08:00 +11°C° 0 mm 4 mps 732 mmHg 53%
    09:00 +12°C° 0 mm 4 mps 732 mmHg 51%
    10:00 +13°C° 0 mm 5 mps 732 mmHg 47%
    11:00 +15°C° 0 mm 5 mps 732 mmHg 43%
    12:00 +17°C° 0 mm 6 mps 732 mmHg 38%
    13:00 +17°C° 0 mm 6 mps 732 mmHg 37%
    14:00 +17°C° 0 mm 6 mps 731 mmHg 36%
    15:00 +19°C° 0 mm 6 mps 730 mmHg 34%
    16:00 +17°C° 0.2 mm 5 mps 730 mmHg 39%
    17:00 +17°C° 0.2 mm 4 mps 730 mmHg 43%
    18:00 +16°C° 0.2 mm 3 mps 730 mmHg 47%
    19:00 +15°C° 0.1 mm 4 mps 730 mmHg 47%
    20:00 +14°C° 0.1 mm 4 mps 730 mmHg 47%
    21:00 +14°C° 0.1 mm 5 mps 730 mmHg 48%
    22:00 +14°C° 0.3 mm 5 mps 729 mmHg 49%
    23:00 +13°C° 0.3 mm 5 mps 729 mmHg 50%

    26 January, Friday

    Time Temperature Precipitation Wind Pressure Humidity
    00:00 +13°C° 0.3 mm 6 mps 729 mmHg 51%
    01:00 +11°C° 0.6 mm 6 mps 728 mmHg 54%
    02:00 +11°C° 0.6 mm 6 mps 728 mmHg 57%
    03:00 +11°C° 0.6 mm 6 mps 727 mmHg 60%
    04:00 +10°C° 0.6 mm 6 mps 727 mmHg 62%
    05:00 +10°C° 0.6 mm 5 mps 727 mmHg 65%
    06:00 +10°C° 0.6 mm 5 mps 727 mmHg 67%
    07:00 +10°C° 0.4 mm 5 mps 727 mmHg 65%
    08:00 +12°C° 0.4 mm 5 mps 728 mmHg 64%
    09:00 +12°C° 0.4 mm 5 mps 728 mmHg 62%
    10:00 +13°C° 0 mm 6 mps 728 mmHg 55%
    11:00 +15°C° 0 mm 6 mps 728 mmHg 49%
    12:00 +16°C° 0 mm 7 mps 729 mmHg 42%
    13:00 +16°C° 0 mm 7 mps 729 mmHg 42%
    14:00 +16°C° 0 mm 6 mps 728 mmHg 43%
    15:00 +16°C° 0 mm 6 mps 728 mmHg 43%
    16:00 +15°C° 0.1 mm 5 mps 728 mmHg 48%
    17:00 +14°C° 0.1 mm 4 mps 728 mmHg 53%
    18:00 +13°C° 0.1 mm 3 mps 728 mmHg 57%
    19:00 +13°C° 0.3 mm 3 mps 729 mmHg 59%
    20:00 +12°C° 0.3 mm 3 mps 729 mmHg 61%
    21:00 +12°C° 0.3 mm 3 mps 729 mmHg 63%
    22:00 +11°C° 0.6 mm 3 mps 729 mmHg 65%
    23:00 +11°C° 0.6 mm 3 mps 729 mmHg 67%

    27 January, Saturday

    Time Temperature Precipitation Wind Pressure Humidity
    00:00 +12°C° 0.6 mm 2 mps 729 mmHg 69%
    01:00 +10°C° 0.4 mm 2 mps 729 mmHg 72%
    02:00 +10°C° 0.4 mm 2 mps 729 mmHg 74%
    03:00 +10°C° 0.4 mm 1 mps 729 mmHg 77%
    04:00 +10°C° 0.1 mm 1 mps 729 mmHg 76%
    05:00 +10°C° 0.1 mm 1 mps 729 mmHg 76%
    06:00 +10°C° 0.1 mm 1 mps 729 mmHg 75%
    07:00 +11°C° 0 mm 1 mps 729 mmHg 72%
    08:00 +10°C° 0 mm 2 mps 729 mmHg 69%
    09:00 +12°C° 0 mm 2 mps 729 mmHg 66%
    10:00 +13°C° 0 mm 2 mps 729 mmHg 61%
    11:00 +14°C° 0 mm 2 mps 729 mmHg 56%
    12:00 +14°C° 0 mm 3 mps 729 mmHg 51%
    13:00 +14°C° 0.1 mm 3 mps 729 mmHg 50%
    14:00 +14°C° 0.1 mm 3 mps 730 mmHg 48%
    15:00 +14°C° 0.1 mm 4 mps 730 mmHg 47%
    16:00 +13°C° 0.1 mm 4 mps 730 mmHg 55%
    17:00 +10°C° 0.1 mm 5 mps 731 mmHg 63%
    18:00 +8°C° 0.1 mm 5 mps 731 mmHg 70%
    19:00 +8°C° 0 mm 4 mps 731 mmHg 72%
    20:00 +7°C° 0 mm 4 mps 732 mmHg 73%
    21:00 +6°C° 0 mm 4 mps 732 mmHg 75%
    22:00 +7°C° 0 mm 3 mps 733 mmHg 75%
    23:00 +7°C° 0 mm 2 mps 733 mmHg 75%

    28 January, Sunday

    Time Temperature Precipitation Wind Pressure Humidity
    00:00 +7°C° 0 mm 2 mps 733 mmHg 75%
    01:00 +8°C° 0 mm 1 mps 733 mmHg 76%
    02:00 +8°C° 0 mm 1 mps 733 mmHg 76%
    03:00 +7°C° 0 mm 1 mps 734 mmHg 77%
    04:00 +7°C° 0 mm 1 mps 734 mmHg 77%
    05:00 +7°C° 0 mm 1 mps 734 mmHg 77%
    06:00 +7°C° 0 mm 1 mps 734 mmHg 77%
    07:00 +8°C° 0 mm 1 mps 735 mmHg 72%
    08:00 +8°C° 0 mm 1 mps 735 mmHg 67%
    09:00 +9°C° 0 mm 1 mps 736 mmHg 63%
    10:00 +10°C° 0 mm 1 mps 736 mmHg 57%
    11:00 +11°C° 0 mm 1 mps 736 mmHg 52%
    12:00 +12°C° 0 mm 1 mps 736 mmHg 47%
    13:00 +13°C° 0 mm 1 mps 735 mmHg 44%
    14:00 +14°C° 0 mm 1 mps 735 mmHg 41%
    15:00 +14°C° 0 mm 1 mps 735 mmHg 38%
    16:00 +14°C° 0 mm 1 mps 735 mmHg 41%
    17:00 +13°C° 0 mm 1 mps 735 mmHg 45%
    18:00 +12°C° 0 mm 1 mps 735 mmHg 48%
    19:00 +12°C° 0 mm 1 mps 736 mmHg 50%
    20:00 +11°C° 0 mm 1 mps 736 mmHg 52%
    21:00 +11°C° 0 mm 1 mps 736 mmHg 53%
    22:00 +11°C° 0 mm 1 mps 736 mmHg 55%
    23:00 +9°C° 0 mm 2 mps 736 mmHg 56%
    Show more